Location: Bastelaar
(51.0950°N, 3.8602°E)
Time: 19:36:31
(UTC+00:00)

Daily predictions for brighter satellites

Satellite Brightness Start Highest point End
(mag) Time Altitude Azimuth Time Altitude Azimuth Time Altitude Azimuth
ISS -2.2 16:24:44 10° SSW 16:27:31 25° SE 16:30:19 10° E
COSMOS 2406 4.2 16:24:14 10° NNW 16:28:55 25° NE 16:33:35 10° E
Cosmos 1833 Rocket 3.1 16:23:35 10° NNW 16:29:14 72° WSW 16:34:51 10° SSE
CZ-2D R/B 3.8 16:27:37 10° SE 16:30:17 25° ENE 16:32:57 10° N
Cosmos 407 Rocket 4.4 16:26:34 10° SSE 16:31:01 30° ESE 16:35:26 10° NE
Cosmos 1484 Rocket 2.7 16:28:51 10° SSE 16:32:22 81° WSW 16:35:56 10° NNW
Cosmos 2016 Rocket 4.1 16:26:08 10° S 16:32:25 76° E 16:38:49 10° NNE
Cosmos 1812 4.1 16:32:16 10° ESE 16:33:11 11° E 16:34:06 10° ENE
Tsikada Rocket 4.1 16:28:15 10° N 16:34:42 74° ENE 16:41:02 10° SSE
CBERS-1 4.1 16:29:40 10° SSE 16:34:48 89° W 16:39:57 10° NNW
Cosmos 1606 4.0 16:33:36 10° SW 16:35:55 26° WNW 16:38:14 10° NNW
Cosmos 2084 Rocket 3.4 16:35:22 10° SW 16:39:33 83° NW 16:43:47 10° NE
SMAP 3.1 16:38:01 10° SSE 16:42:36 60° ENE 16:47:12 10° N
Cosmos 44 Rocket 4.4 16:39:42 10° S 16:43:40 26° ESE 16:47:37 11° ENE
Cosmos 540 Rocket 3.5 16:38:44 10° NNW 16:43:49 56° ENE 16:48:50 10° SE
SJ 16-02 3.1 16:44:16 10° ESE 16:46:19 13° E 16:47:54 11° ENE
SPOT 1/Viking Rocket 4.3 16:43:07 10° ESE 16:47:31 29° ENE 16:51:57 10° N
Cosmos 1869 3.8 16:44:56 10° SSE 16:48:03 30° E 16:51:10 10° NNE
YAOGAN 1 3.9 16:46:25 10° ESE 16:49:23 19° ENE 16:52:22 10° NNE
IGS 5A 3.5 16:45:43 10° SSE 16:49:42 81° WSW 16:53:42 10° NNW
Cosmos 1763 Rocket 3.4 16:47:03 10° NNW 16:52:18 75° ENE 16:57:26 10° SSE
SL-16 R/B 2.7 16:46:06 10° NNE 16:52:25 86° WNW 16:58:40 10° SSW
SAR-Lupe-5 4.2 16:51:52 10° NNE 16:54:29 88° WNW 16:57:08 10° SSW
Landsat 7 3.8 16:50:12 10° SSE 16:54:45 58° ENE 16:59:20 10° N
Timation 1 Rocket 4.3 16:51:56 10° NNW 16:57:56 80° ENE 17:03:55 10° SE
RESURS DK-1 2.2 16:53:59 10° NNW 16:58:01 84° NE 17:02:01 10° SSE
Cosmos 1140 Rocket 3.5 16:54:41 10° SSW 16:59:52 89° ESE 17:05:03 10° NNE
Aureole 3 Rocket 3.3 16:58:31 10° SSE 17:01:06 25° E 17:03:44 11° NNE
CZ-4C R/B 3.2 16:56:44 10° W 17:01:10 35° NNW 17:06:49 10° NE
UNK 3.7 17:00:47 10° NNE 17:05:25 74° ESE 17:10:01 10° S
Meteor 1-28 Rocket 3.5 17:02:15 10° N 17:05:35 59° WNW 17:08:53 10° SSW
SJ-6F 4.4 17:02:51 10° SSE 17:06:40 52° ENE 17:10:29 10° N
Meteor 2-12 Rocket 4.4 17:02:34 10° N 17:08:43 76° ENE 17:14:46 10° SSE
Cosmos 1400 Rocket 4.0 17:07:45 10° SE 17:10:33 20° E 17:11:07 19° ENE
SJ-12 3.6 17:07:19 10° SSE 17:11:06 79° ENE 17:14:55 10° NNW
Cosmos 1536 Rocket 4.1 17:07:16 10° N 17:11:22 35° ENE 17:15:25 10° SE
SAR-Lupe-3 4.0 17:13:47 20° NE 17:15:18 44° ESE 17:17:50 10° S
Helios 1A Rocket 4.5 17:16:48 13° ESE 17:16:48 13° ESE 17:17:34 10° SE
Okean 2 Rocket 4.0 17:14:20 10° SE 17:17:56 25° E 17:20:03 18° NE
IRS-1C 4.3 17:16:56 10° SSE 17:22:15 77° WSW 17:27:37 10° NNW
ATLAS CENTAUR R/B 3.3 17:23:13 10° WNW 17:25:21 15° NNW 17:27:30 10° NNE
SL-12 R/B(2) 4.4 17:18:45 10° SSW 17:26:42 72° SE 17:35:47 13° NE
COSMO-SKYMED 1 3.4 17:26:49 25° E 17:27:20 25° E 17:30:47 10° SSE
Resurs 01 Rocket 3.1 17:30:11 19° NE 17:30:11 19° NE 17:32:21 10° NNE
Cosmos 1943 Rocket 2.1 17:24:45 10° SSW 17:30:20 73° ESE 17:35:17 13° NNE
Timation 2 Rocket 4.2 17:24:50 10° SSW 17:31:42 78° ESE 17:38:23 11° NE
Cosmos 841 Rocket 3.7 17:27:53 10° NNW 17:33:02 49° ENE 17:38:06 10° SE
Cosmos 2058 2.6 17:29:27 10° N 17:33:26 75° ENE 17:37:24 10° SSE
Cosmos 2251 Rocket 3.6 17:29:16 10° S 17:34:24 55° ESE 17:38:36 16° NE
SJ-7 4.4 17:33:10 10° SE 17:36:41 45° ENE 17:40:14 10° N
BREEZE-M DEB (TANK) 2.7 17:34:52 10° SW 17:37:25 52° SSE 17:39:49 26° E
Cosmos 2082 Rocket 2.2 17:32:34 10° NNW 17:38:13 87° WSW 17:43:50 10° SSE
ATLAS 2AS CENTAUR R/B 3.1 17:32:21 10° NW 17:38:49 43° NNE 17:42:14 25° E
Cosmos 1346 Rocket 3.9 17:36:38 10° N 17:38:39 24° NNE 17:38:39 24° NNE
IRAS Rocket 4.2 17:38:20 10° SSE 17:43:49 66° ENE 17:49:18 10° NNW
Cosmos 2278 Rocket 2.1 17:38:09 10° SSW 17:43:49 85° ESE 17:48:32 15° NNE
Cosmos 1602 3.3 17:41:39 10° NNW 17:44:43 70° W 17:47:45 10° S
MOS 1 Rocket 3.2 17:41:37 10° S 17:45:58 79° W 17:50:33 10° NNW
Cosmos 468 Rocket 4.2 17:42:11 10° NNW 17:47:24 73° WSW 17:52:31 10° SSE
Cosmos 1464 Rocket 3.9 17:44:16 10° S 17:50:29 67° E 17:56:40 10° NNE
ARIANE 5 R/B 3.7 17:46:19 10° S 17:51:02 44° W 17:55:51 10° NNW
CZ-2D R/B 3.3 17:47:34 10° SSE 17:51:44 84° ENE 17:55:58 10° NNW
Cosmos 2369 Rocket 4.3 17:50:06 10° SE 17:50:09 10° SE 17:50:09 10° SE
USA 215 4.3 17:49:05 10° SSE 17:55:18 45° SW 18:01:33 10° WNW
Cosmos 1862 3.0 17:52:13 10° NNW 17:55:52 84° W 17:59:30 10° S
PSLV R/B 3.2 17:53:31 10° SSE 17:57:31 70° ENE 18:01:33 10° N
Cosmos 2151 Rocket 3.5 17:56:32 10° S 18:01:01 81° E 18:05:04 13° NNE
Cosmos 1190 Rocket 3.9 17:56:54 10° SSW 18:02:11 77° ESE 18:05:26 24° NNE
ISS -3.8 18:00:37 10° WSW 18:03:52 77° SSW 18:03:52 77° SSW
Cosmos 2034 Rocket 4.0 17:58:23 10° S 18:04:27 58° E 18:10:36 10° NNE
Cosmos 1812 3.3 18:02:31 10° SSW 18:05:16 39° WNW 18:06:20 27° NNW
Cosmos 676 Rocket 4.1 18:00:11 10° S 18:05:19 53° ESE 18:06:43 41° ENE
SKYMED 2 3.4 18:03:51 18° NNE 18:07:02 86° ESE 18:11:23 10° SSW
Okean 1 Rocket 2.9 18:03:22 10° S 18:07:42 62° E 18:08:25 53° NE
Cosmos 1656 Rocket 4.0 18:02:51 10° S 18:07:59 40° ESE 18:08:00 40° ESE
Cosmos 220 Rocket 4.0 18:07:40 10° NNW 18:11:16 55° NNE 18:11:16 55° NNE
Cosmos 407 Rocket 4.3 18:07:43 10° SW 18:12:43 48° WNW 18:17:08 13° NNE
USA 281 3.5 18:11:29 38° E 18:13:15 46° NE 18:19:29 10° NNW
Sich 1 Rocket 3.5 18:08:56 10° S 18:13:27 72° E 18:14:56 42° NNE
COSMOS 2406 3.2 18:08:12 10° NNW 18:13:54 84° WSW 18:19:01 13° SSE
Cosmos 1954 Rocket 3.9 18:09:20 10° SSW 18:14:36 80° ESE 18:16:53 35° NNE
Cosmos 1092 Rocket 3.9 18:09:38 10° N 18:15:52 61° ENE 18:21:58 10° SSE
BlueWalker 3 4.4 18:15:16 10° S 18:15:40 12° S 18:15:40 12° S
SL-19 R/B 4.2 18:13:52 10° SSE 18:19:03 77° WSW 18:24:21 10° NNW
Cosmos 2026 Rocket 3.8 18:14:47 10° N 18:20:53 73° ENE 18:27:02 10° SSE
SJ 16-02 1.3 18:19:30 10° SSW 18:23:48 80° WNW 18:24:29 62° N
Cosmos 44 Rocket 3.6 18:19:57 10° SW 18:24:44 62° NW 18:26:14 42° NNE
YAOGAN 1 2.9 18:20:37 10° S 18:24:50 62° WSW 18:29:05 10° NNW
SPOT 1/Viking Rocket 4.3 18:21:36 10° S 18:26:37 51° W 18:31:43 10° NNW
Cosmos 2344 3.8 18:24:05 10° NW 18:31:54 89° NE 18:38:34 25° SE
Cosmos 2297 Rocket 4.2 18:31:00 10° N 18:33:09 14° NNE 18:33:09 14° NNE
Meteor 2-3 Rocket 3.8 18:31:06 10° NNW 18:36:50 79° W 18:42:27 10° S
Resurs 1-3 4.5 18:35:14 10° S 18:39:23 48° W 18:43:34 10° NNW
Cosmos 1400 Rocket 4.0 18:42:11 10° SW 18:45:46 39° WNW 18:45:48 39° WNW
Cosmos 304 Rocket 4.0 18:43:59 10° SW 18:48:41 65° WNW 18:48:47 65° NW
Cosmos 371 Rocket 3.5 18:45:45 10° SW 18:50:31 66° WNW 18:50:35 66° WNW
CZ-4C R/B 3.8 18:46:26 10° NW 18:51:08 26° N 18:51:49 26° NNE
Okean 2 Rocket 4.3 18:51:36 10° SW 18:55:43 39° WNW 18:57:21 28° NNW
COSMO-SKYMED 1 3.9 19:03:11 37° W 19:03:11 37° W 19:06:35 10° SW
Resurs 01 Rocket 3.5 19:07:36 25° NNW 19:07:36 25° NNW 19:09:30 10° NNW
BREEZE-M DEB (TANK) 4.0 19:08:44 10° WSW 19:11:47 66° SW 19:11:47 66° SW
Cosmos 1943 Rocket 3.9 19:09:49 10° W 19:14:35 28° NW 19:16:48 22° N
Cosmos 2278 Rocket 4.0 19:23:58 10° W 19:28:36 25° NW 19:30:23 22° NNW
ATLAS 2AS CENTAUR R/B 2.8 19:23:24 10° NW 19:29:41 69° W 19:29:41 69° W
Cosmos 2369 Rocket 4.4 19:31:14 10° SSW 19:31:59 14° SSW 19:31:59 14° SSW
USA 281 4.0 19:58:21 47° W 19:58:21 47° W 20:04:07 10° NW
SJ 16-02 4.4 20:00:23 10° WNW 20:01:03 12° WNW 20:01:03 12° WNW
